VTD146 UATG-UATE

Flight info

Callsign VTD146
Flight time 1h 33m
Altitude 13000
Route RENPI M158 OTMAS/N0150F120 N996 AGILA
Aircraft DA42/L-SDEFGRY/C

Departure

Time 2026-04-18 04:15
Airport Atyrau International Airport (UATG)

Arrival

Time 2026-04-18 05:49
Airport Aktau International Airport (UATE)
Time Latitude Longitude Altitude Speed Heading
2026-04-18 04:07 47.12409 51.82535 -87 ft 0 kts 240°
2026-04-18 04:09 47.12403 51.82535 -89 ft 2 kts 98°
2026-04-18 04:09 47.12421 51.82567 -88 ft 4 kts 71°
2026-04-18 04:09 47.12392 51.82616 -87 ft 9 kts 152°
2026-04-18 04:10 47.12349 51.82652 -87 ft 11 kts 151°
2026-04-18 04:10 47.12263 51.82690 -87 ft 10 kts 152°
2026-04-18 04:10 47.12211 51.82733 -87 ft 16 kts 150°
2026-04-18 04:10 47.12144 51.82760 -87 ft 9 kts 224°
2026-04-18 04:11 47.12097 51.82645 -87 ft 13 kts 242°
2026-04-18 04:11 47.12045 51.82518 -87 ft 17 kts 240°
2026-04-18 04:11 47.11996 51.82390 -87 ft 5 kts 240°
2026-04-18 04:11 47.11994 51.82385 -87 ft 0 kts 240°
2026-04-18 04:14 47.11990 51.82375 -87 ft 8 kts 240°
2026-04-18 04:14 47.11943 51.82268 -89 ft 12 kts 226°
2026-04-18 04:14 47.11910 51.82261 -86 ft 0 kts 152°
2026-04-18 04:15 47.11842 51.82319 -85 ft 39 kts 150°
2026-04-18 04:15 47.11456 51.82649 -62 ft 82 kts 149°
2026-04-18 04:15 47.10934 51.83108 172 ft 93 kts 148°
2026-04-18 04:15 47.10386 51.83551 617 ft 85 kts 145°
2026-04-18 04:16 47.09880 51.83984 939 ft 84 kts 144°
2026-04-18 04:16 47.09366 51.84403 1246 ft 85 kts 146°
2026-04-18 04:16 47.08846 51.84818 1568 ft 84 kts 147°
2026-04-18 04:16 47.08343 51.85267 1863 ft 86 kts 146°
2026-04-18 04:17 47.07835 51.85709 2187 ft 85 kts 147°
2026-04-18 04:17 47.07319 51.86154 2487 ft 87 kts 148°
2026-04-18 04:17 47.06790 51.86603 2805 ft 87 kts 149°
2026-04-18 04:17 47.06258 51.87051 3115 ft 88 kts 148°
2026-04-18 04:18 47.05732 51.87495 3441 ft 88 kts 149°
2026-04-18 04:18 47.05201 51.87945 3770 ft 89 kts 150°
2026-04-18 04:18 47.04663 51.88401 4082 ft 90 kts 150°
2026-04-18 04:18 47.04118 51.88865 4398 ft 91 kts 151°
2026-04-18 04:19 47.03602 51.89404 4703 ft 92 kts 143°
2026-04-18 04:19 47.03107 51.90007 4998 ft 93 kts 144°
2026-04-18 04:19 47.02607 51.90615 5305 ft 93 kts 143°
2026-04-18 04:19 47.02110 51.91222 5616 ft 93 kts 144°
2026-04-18 04:20 47.01610 51.91830 5912 ft 94 kts 143°
2026-04-18 04:20 47.01109 51.92439 6221 ft 93 kts 144°
2026-04-18 04:20 47.00608 51.93049 6537 ft 94 kts 143°
2026-04-18 04:20 47.00105 51.93661 6829 ft 95 kts 144°
2026-04-18 04:21 46.99602 51.94272 7109 ft 96 kts 144°
2026-04-18 04:21 46.99087 51.94899 7397 ft 96 kts 143°
2026-04-18 04:21 46.98565 51.95530 7664 ft 98 kts 143°
2026-04-18 04:21 46.98037 51.96173 7949 ft 99 kts 142°
2026-04-18 04:22 46.97504 51.96817 8247 ft 100 kts 143°
2026-04-18 04:22 46.96966 51.97472 8532 ft 101 kts 143°
2026-04-18 04:22 46.96419 51.98139 8817 ft 103 kts 143°
2026-04-18 04:22 46.95867 51.98808 9112 ft 104 kts 143°
2026-04-18 04:23 46.95307 51.99488 9401 ft 106 kts 142°
2026-04-18 04:23 46.94746 52.00167 9680 ft 107 kts 142°
2026-04-18 04:23 46.94172 52.00866 9982 ft 108 kts 141°
2026-04-18 04:23 46.93589 52.01570 10264 ft 108 kts 142°
2026-04-18 04:24 46.93009 52.02274 10530 ft 109 kts 142°
2026-04-18 04:24 46.92422 52.02983 10813 ft 109 kts 142°
2026-04-18 04:24 46.91833 52.03697 11088 ft 111 kts 142°
2026-04-18 04:24 46.91238 52.04417 11365 ft 111 kts 141°
2026-04-18 04:25 46.90641 52.05140 11630 ft 112 kts 142°
2026-04-18 04:25 46.90038 52.05871 11907 ft 113 kts 142°
2026-04-18 04:25 46.89431 52.06605 12183 ft 113 kts 142°
2026-04-18 04:25 46.88823 52.07341 12458 ft 114 kts 142°
2026-04-18 04:26 46.88207 52.08085 12739 ft 115 kts 142°
2026-04-18 04:26 46.87589 52.08832 13014 ft 116 kts 142°
2026-04-18 04:26 46.86962 52.09588 13184 ft 126 kts 142°
2026-04-18 04:26 46.86228 52.10469 13189 ft 146 kts 142°
2026-04-18 04:27 46.85408 52.11455 13189 ft 159 kts 141°
2026-04-18 04:27 46.84529 52.12517 13191 ft 168 kts 141°
2026-04-18 04:27 46.83627 52.13614 13188 ft 169 kts 140°
2026-04-18 04:27 46.82722 52.14717 13190 ft 170 kts 141°
2026-04-18 04:28 46.81811 52.15823 13190 ft 171 kts 140°
2026-04-18 04:28 46.80898 52.16931 13189 ft 170 kts 141°
2026-04-18 04:28 46.79986 52.18037 13188 ft 170 kts 140°
2026-04-18 04:28 46.79075 52.19141 13189 ft 171 kts 140°
2026-04-18 04:29 46.78161 52.20247 13185 ft 171 kts 140°
2026-04-18 04:29 46.77245 52.21355 13188 ft 170 kts 140°
2026-04-18 04:29 46.76333 52.22458 13188 ft 170 kts 140°
2026-04-18 04:29 46.75421 52.23561 13184 ft 170 kts 140°
2026-04-18 04:30 46.74511 52.24660 13187 ft 170 kts 140°
2026-04-18 04:30 46.73598 52.25762 13184 ft 170 kts 140°
2026-04-18 04:30 46.72685 52.26864 13184 ft 170 kts 140°
2026-04-18 04:30 46.71772 52.27965 13186 ft 170 kts 140°
2026-04-18 04:31 46.70859 52.29067 13182 ft 170 kts 140°
2026-04-18 04:31 46.69945 52.30168 13184 ft 170 kts 140°
2026-04-18 04:31 46.69042 52.31256 13182 ft 171 kts 140°
2026-04-18 04:31 46.68129 52.32356 13183 ft 170 kts 140°
2026-04-18 04:32 46.67213 52.33458 13183 ft 170 kts 140°
2026-04-18 04:32 46.66299 52.34558 13184 ft 170 kts 140°
2026-04-18 04:32 46.65385 52.35657 13184 ft 170 kts 140°
2026-04-18 04:32 46.64471 52.36757 13183 ft 171 kts 140°
2026-04-18 04:33 46.63557 52.37855 13181 ft 171 kts 140°
2026-04-18 04:33 46.62639 52.38957 13182 ft 171 kts 140°
2026-04-18 04:33 46.61725 52.40054 13184 ft 171 kts 140°
2026-04-18 04:33 46.60808 52.41154 13180 ft 171 kts 140°
2026-04-18 04:34 46.59894 52.42251 13180 ft 171 kts 140°
2026-04-18 04:34 46.58979 52.43348 13182 ft 171 kts 140°
2026-04-18 04:34 46.58061 52.44448 13182 ft 171 kts 140°
2026-04-18 04:34 46.57121 52.45497 13180 ft 171 kts 142°
2026-04-18 04:35 46.56184 52.46561 13179 ft 171 kts 141°
2026-04-18 04:35 46.55260 52.47616 13177 ft 171 kts 141°
2026-04-18 04:35 46.54321 52.48674 13179 ft 171 kts 141°
2026-04-18 04:35 46.53380 52.49730 13177 ft 171 kts 141°
2026-04-18 04:36 46.52439 52.50785 13178 ft 171 kts 141°
2026-04-18 04:36 46.51496 52.51840 13178 ft 171 kts 142°
2026-04-18 04:36 46.50553 52.52896 13177 ft 171 kts 141°
2026-04-18 04:36 46.49611 52.53950 13176 ft 171 kts 142°
2026-04-18 04:37 46.48669 52.55005 13176 ft 171 kts 142°
2026-04-18 04:37 46.47727 52.56058 13180 ft 171 kts 141°
2026-04-18 04:37 46.46784 52.57112 13178 ft 171 kts 141°
2026-04-18 04:37 46.45842 52.58164 13179 ft 171 kts 141°
2026-04-18 04:38 46.44912 52.59203 13180 ft 171 kts 142°
2026-04-18 04:38 46.43969 52.60255 13182 ft 171 kts 142°
2026-04-18 04:38 46.43027 52.61307 13182 ft 171 kts 141°
2026-04-18 04:38 46.42086 52.62356 13181 ft 171 kts 141°
2026-04-18 04:39 46.41145 52.63406 13183 ft 171 kts 141°
2026-04-18 04:39 46.40203 52.64455 13185 ft 171 kts 141°
2026-04-18 04:39 46.39261 52.65505 13184 ft 171 kts 141°
2026-04-18 04:39 46.38317 52.66555 13183 ft 171 kts 141°
2026-04-18 04:40 46.37375 52.67604 13183 ft 171 kts 141°
2026-04-18 04:40 46.36432 52.68652 13184 ft 171 kts 141°
2026-04-18 04:40 46.35487 52.69703 13184 ft 171 kts 141°
2026-04-18 04:40 46.34540 52.70755 13186 ft 171 kts 141°
2026-04-18 04:41 46.33596 52.71804 13184 ft 171 kts 141°
2026-04-18 04:41 46.32650 52.72854 13183 ft 171 kts 141°
2026-04-18 04:41 46.31704 52.73904 13181 ft 171 kts 141°
2026-04-18 04:41 46.30757 52.74954 13182 ft 171 kts 141°
2026-04-18 04:42 46.29811 52.76004 13182 ft 172 kts 141°
2026-04-18 04:42 46.28863 52.77055 13181 ft 172 kts 141°
2026-04-18 04:42 46.27926 52.78092 13179 ft 172 kts 141°
2026-04-18 04:42 46.26978 52.79142 13180 ft 172 kts 141°
2026-04-18 04:43 46.26030 52.80191 13184 ft 171 kts 141°
2026-04-18 04:43 46.25081 52.81242 13184 ft 172 kts 141°
2026-04-18 04:43 46.24126 52.82298 13123 ft 175 kts 141°
2026-04-18 04:43 46.23153 52.83373 13044 ft 177 kts 141°
2026-04-18 04:44 46.22169 52.84460 12968 ft 179 kts 141°
2026-04-18 04:44 46.21178 52.85554 12885 ft 180 kts 141°
2026-04-18 04:44 46.20183 52.86654 12809 ft 180 kts 141°
2026-04-18 04:44 46.19185 52.87755 12730 ft 180 kts 141°
2026-04-18 04:45 46.18188 52.88854 12650 ft 181 kts 141°
2026-04-18 04:45 46.17202 52.89941 12575 ft 181 kts 141°
2026-04-18 04:45 46.16203 52.91041 12497 ft 181 kts 141°
2026-04-18 04:45 46.15202 52.92144 12417 ft 181 kts 141°
2026-04-18 04:46 46.14202 52.93244 12341 ft 180 kts 141°
2026-04-18 04:46 46.13207 52.94339 12264 ft 180 kts 141°
2026-04-18 04:46 46.12212 52.95434 12194 ft 179 kts 141°
2026-04-18 04:46 46.11231 52.96510 12193 ft 175 kts 141°
2026-04-18 04:47 46.10267 52.97569 12198 ft 173 kts 141°
2026-04-18 04:47 46.09314 52.98616 12198 ft 172 kts 141°
2026-04-18 04:47 46.08329 52.99581 12197 ft 172 kts 152°
2026-04-18 04:47 46.07166 53.00003 12201 ft 175 kts 175°
2026-04-18 04:48 46.05964 52.99730 12203 ft 177 kts 198°
2026-04-18 04:48 46.04878 52.98864 12205 ft 179 kts 210°
2026-04-18 04:48 46.03818 52.97906 12197 ft 180 kts 210°
2026-04-18 04:48 46.02761 52.96950 12196 ft 179 kts 210°
2026-04-18 04:49 46.01706 52.95997 12197 ft 179 kts 210°
2026-04-18 04:49 46.00646 52.95041 12195 ft 180 kts 210°
2026-04-18 04:49 45.99589 52.94089 12192 ft 179 kts 210°
2026-04-18 04:49 45.98549 52.93153 12197 ft 179 kts 210°
2026-04-18 04:50 45.97492 52.92204 12197 ft 179 kts 210°
2026-04-18 04:50 45.96428 52.91249 12198 ft 181 kts 210°
2026-04-18 04:50 45.95363 52.90289 12193 ft 180 kts 210°
2026-04-18 04:50 45.94301 52.89335 12192 ft 180 kts 210°
2026-04-18 04:51 45.93243 52.88385 12192 ft 179 kts 210°
2026-04-18 04:51 45.92183 52.87434 12188 ft 179 kts 210°
2026-04-18 04:51 45.91127 52.86487 12189 ft 179 kts 210°
2026-04-18 04:51 45.90068 52.85538 12186 ft 179 kts 210°
2026-04-18 04:52 45.89025 52.84604 12187 ft 179 kts 210°
2026-04-18 04:52 45.87970 52.83658 12189 ft 179 kts 210°
2026-04-18 04:52 45.86914 52.82714 12188 ft 179 kts 210°
2026-04-18 04:52 45.85858 52.81769 12187 ft 179 kts 210°
2026-04-18 04:53 45.84801 52.80822 12187 ft 179 kts 210°
2026-04-18 04:53 45.83741 52.79874 12187 ft 179 kts 209°
2026-04-18 04:53 45.82679 52.78926 12186 ft 179 kts 210°
2026-04-18 04:53 45.81619 52.77979 12184 ft 180 kts 209°
2026-04-18 04:54 45.80559 52.77032 12184 ft 180 kts 210°
2026-04-18 04:54 45.79495 52.76083 12185 ft 180 kts 210°
2026-04-18 04:54 45.78432 52.75134 12185 ft 180 kts 210°
2026-04-18 04:54 45.77372 52.74189 12182 ft 180 kts 209°
2026-04-18 04:55 45.76321 52.73253 12186 ft 180 kts 210°
2026-04-18 04:55 45.75259 52.72306 12187 ft 180 kts 210°
2026-04-18 04:55 45.74542 52.71668 12185 ft 180 kts 210°
2026-04-18 04:56 45.72432 52.69791 12182 ft 180 kts 209°
2026-04-18 04:56 45.71371 52.68846 12183 ft 180 kts 209°
2026-04-18 04:56 45.70308 52.67902 12183 ft 180 kts 209°
2026-04-18 04:56 45.69245 52.66957 12176 ft 180 kts 210°
2026-04-18 04:57 45.68185 52.66015 12184 ft 180 kts 210°
2026-04-18 04:57 45.67121 52.65072 12182 ft 180 kts 210°
2026-04-18 04:57 45.66059 52.64129 12181 ft 180 kts 210°
2026-04-18 04:57 45.64996 52.63186 12176 ft 180 kts 210°
2026-04-18 04:58 45.63933 52.62243 12182 ft 180 kts 209°
2026-04-18 04:58 45.62870 52.61300 12185 ft 180 kts 209°
2026-04-18 04:58 45.61803 52.60356 12184 ft 180 kts 209°
2026-04-18 04:58 45.60738 52.59413 12179 ft 180 kts 209°
2026-04-18 04:59 45.59686 52.58482 12181 ft 180 kts 209°
2026-04-18 04:59 45.58620 52.57539 12179 ft 180 kts 209°
2026-04-18 04:59 45.57554 52.56597 12176 ft 180 kts 209°
2026-04-18 04:59 45.56489 52.55656 12180 ft 180 kts 209°
2026-04-18 05:00 45.55423 52.54714 12177 ft 180 kts 209°
2026-04-18 05:00 45.54356 52.53772 12176 ft 180 kts 209°
2026-04-18 05:00 45.53290 52.52831 12172 ft 180 kts 209°
2026-04-18 05:00 45.52224 52.51890 12173 ft 180 kts 209°
2026-04-18 05:01 45.51160 52.50952 12174 ft 180 kts 209°
2026-04-18 05:01 45.50097 52.50016 12173 ft 179 kts 209°
2026-04-18 05:01 45.49035 52.49081 12179 ft 179 kts 208°
2026-04-18 05:01 45.47971 52.48144 12175 ft 179 kts 209°
2026-04-18 05:02 45.46910 52.47210 12175 ft 179 kts 209°
2026-04-18 05:02 45.45848 52.46275 12179 ft 179 kts 209°
2026-04-18 05:02 45.44787 52.45343 12180 ft 179 kts 209°
2026-04-18 05:02 45.43740 52.44424 12178 ft 179 kts 209°
2026-04-18 05:03 45.42681 52.43494 12175 ft 179 kts 209°
2026-04-18 05:03 45.41620 52.42562 12176 ft 179 kts 209°
2026-04-18 05:03 45.40560 52.41631 12177 ft 179 kts 209°
2026-04-18 05:03 45.39499 52.40700 12178 ft 179 kts 209°
2026-04-18 05:04 45.38436 52.39770 12179 ft 179 kts 209°
2026-04-18 05:04 45.37373 52.38837 12179 ft 179 kts 209°
2026-04-18 05:04 45.36311 52.37906 12175 ft 179 kts 208°
2026-04-18 05:04 45.35250 52.36978 12178 ft 179 kts 209°
2026-04-18 05:05 45.34193 52.36053 12179 ft 178 kts 209°
2026-04-18 05:05 45.33148 52.35139 12177 ft 178 kts 209°
2026-04-18 05:05 45.32090 52.34213 12175 ft 178 kts 210°
2026-04-18 05:05 45.31033 52.33290 12177 ft 178 kts 209°
2026-04-18 05:06 45.29976 52.32367 12176 ft 178 kts 209°
2026-04-18 05:06 45.28922 52.31446 12174 ft 178 kts 209°
2026-04-18 05:06 45.27869 52.30525 12175 ft 178 kts 209°
2026-04-18 05:06 45.26815 52.29607 12168 ft 178 kts 209°
2026-04-18 05:07 45.25757 52.28685 12171 ft 178 kts 209°
2026-04-18 05:07 45.24701 52.27763 12171 ft 178 kts 209°
2026-04-18 05:07 45.23659 52.26854 12169 ft 178 kts 209°
2026-04-18 05:07 45.22605 52.25936 12166 ft 177 kts 209°
2026-04-18 05:08 45.21553 52.25022 12174 ft 177 kts 210°
2026-04-18 05:08 45.20500 52.24105 12172 ft 178 kts 209°
2026-04-18 05:08 45.19446 52.23188 12172 ft 177 kts 209°
2026-04-18 05:08 45.18397 52.22276 12171 ft 177 kts 210°
2026-04-18 05:09 45.17347 52.21363 12171 ft 177 kts 210°
2026-04-18 05:09 45.16300 52.20454 12173 ft 176 kts 210°
2026-04-18 05:09 45.15255 52.19546 12175 ft 176 kts 209°
2026-04-18 05:09 45.14208 52.18638 12175 ft 177 kts 210°
2026-04-18 05:10 45.13174 52.17740 12175 ft 177 kts 210°
2026-04-18 05:10 45.12125 52.16831 12173 ft 177 kts 210°
2026-04-18 05:10 45.11076 52.15922 12176 ft 176 kts 210°
2026-04-18 05:10 45.10031 52.15016 12172 ft 176 kts 210°
2026-04-18 05:11 45.08986 52.14111 12173 ft 176 kts 210°
2026-04-18 05:11 45.07938 52.13204 12171 ft 176 kts 210°
2026-04-18 05:11 45.06892 52.12298 12171 ft 176 kts 210°
2026-04-18 05:11 45.05848 52.11395 12171 ft 175 kts 210°
2026-04-18 05:12 45.04805 52.10493 12173 ft 176 kts 210°
2026-04-18 05:12 45.03764 52.09594 12172 ft 175 kts 210°
2026-04-18 05:12 45.02721 52.08694 12171 ft 175 kts 210°
2026-04-18 05:12 45.01679 52.07794 12174 ft 175 kts 210°
2026-04-18 05:13 45.00641 52.06898 12173 ft 175 kts 210°
2026-04-18 05:13 44.99619 52.06016 12172 ft 175 kts 210°
2026-04-18 05:13 44.98583 52.05123 12172 ft 174 kts 210°
2026-04-18 05:13 44.97547 52.04229 12176 ft 174 kts 210°
2026-04-18 05:14 44.96507 52.03334 12173 ft 174 kts 210°
2026-04-18 05:14 44.95472 52.02442 12174 ft 174 kts 210°
2026-04-18 05:14 44.94437 52.01551 12170 ft 174 kts 210°
2026-04-18 05:14 44.93400 52.00660 12168 ft 174 kts 210°
2026-04-18 05:15 44.92364 51.99768 12166 ft 174 kts 210°
2026-04-18 05:15 44.91328 51.98877 12165 ft 174 kts 210°
2026-04-18 05:15 44.90294 51.97988 12165 ft 174 kts 210°
2026-04-18 05:15 44.89262 51.97102 12167 ft 174 kts 210°
2026-04-18 05:16 44.88229 51.96215 12166 ft 174 kts 210°
2026-04-18 05:16 44.87196 51.95328 12165 ft 174 kts 210°
2026-04-18 05:16 44.86175 51.94452 12166 ft 174 kts 210°
2026-04-18 05:16 44.85144 51.93568 12167 ft 173 kts 210°
2026-04-18 05:17 44.84114 51.92685 12168 ft 173 kts 210°
2026-04-18 05:17 44.83085 51.91803 12165 ft 173 kts 210°
2026-04-18 05:17 44.82052 51.90919 12164 ft 173 kts 210°
2026-04-18 05:17 44.81105 51.89872 12160 ft 173 kts 220°
2026-04-18 05:18 44.80210 51.88740 12162 ft 173 kts 221°
2026-04-18 05:18 44.79318 51.87606 12164 ft 173 kts 220°
2026-04-18 05:18 44.78424 51.86473 12160 ft 173 kts 220°
2026-04-18 05:18 44.77529 51.85341 12160 ft 173 kts 220°
2026-04-18 05:19 44.76637 51.84213 12165 ft 172 kts 220°
2026-04-18 05:19 44.75742 51.83083 12161 ft 173 kts 221°
2026-04-18 05:19 44.74844 51.81949 12164 ft 173 kts 220°
2026-04-18 05:19 44.73948 51.80818 12161 ft 173 kts 220°
2026-04-18 05:20 44.73053 51.79688 12157 ft 173 kts 220°
2026-04-18 05:20 44.72156 51.78557 12159 ft 173 kts 220°
2026-04-18 05:20 44.71262 51.77428 12162 ft 173 kts 220°
2026-04-18 05:20 44.70366 51.76300 12164 ft 173 kts 221°
2026-04-18 05:21 44.69466 51.75167 12156 ft 174 kts 220°
2026-04-18 05:21 44.68567 51.74034 12163 ft 174 kts 220°
2026-04-18 05:21 44.67680 51.72917 12161 ft 173 kts 220°
2026-04-18 05:21 44.66784 51.71790 12162 ft 173 kts 220°
2026-04-18 05:22 44.65885 51.70660 12162 ft 173 kts 220°
2026-04-18 05:22 44.64986 51.69530 12159 ft 173 kts 220°
2026-04-18 05:22 44.64090 51.68404 12157 ft 173 kts 220°
2026-04-18 05:22 44.63194 51.67278 12161 ft 173 kts 220°
2026-04-18 05:23 44.62300 51.66156 12160 ft 172 kts 220°
2026-04-18 05:23 44.61404 51.65032 12160 ft 173 kts 220°
2026-04-18 05:23 44.60511 51.63912 12157 ft 172 kts 220°
2026-04-18 05:23 44.59620 51.62795 12157 ft 172 kts 220°
2026-04-18 05:24 44.58732 51.61683 12158 ft 171 kts 220°
2026-04-18 05:24 44.57847 51.60572 12160 ft 171 kts 220°
2026-04-18 05:24 44.56960 51.59464 12156 ft 171 kts 220°
2026-04-18 05:24 44.56073 51.58353 12157 ft 171 kts 220°
2026-04-18 05:25 44.55184 51.57241 12153 ft 171 kts 220°
2026-04-18 05:25 44.54293 51.56127 12149 ft 172 kts 220°
2026-04-18 05:25 44.53401 51.55011 12150 ft 172 kts 220°
2026-04-18 05:25 44.52508 51.53895 12152 ft 172 kts 220°
2026-04-18 05:26 44.51617 51.52784 12150 ft 171 kts 220°
2026-04-18 05:26 44.50729 51.51674 12153 ft 172 kts 220°
2026-04-18 05:26 44.49847 51.50573 12151 ft 172 kts 220°
2026-04-18 05:26 44.48958 51.49465 12145 ft 171 kts 220°
2026-04-18 05:27 44.48072 51.48360 12148 ft 170 kts 220°
2026-04-18 05:27 44.47185 51.47255 12148 ft 171 kts 220°
2026-04-18 05:27 44.46297 51.46149 12151 ft 170 kts 220°
2026-04-18 05:27 44.45415 51.45050 12154 ft 170 kts 220°
2026-04-18 05:28 44.44529 51.43947 12148 ft 170 kts 220°
2026-04-18 05:28 44.43647 51.42849 12144 ft 170 kts 220°
2026-04-18 05:28 44.42764 51.41751 12148 ft 170 kts 220°
2026-04-18 05:28 44.41882 51.40655 12147 ft 170 kts 220°
2026-04-18 05:29 44.40997 51.39556 12146 ft 169 kts 220°
2026-04-18 05:29 44.40128 51.38476 12147 ft 169 kts 220°
2026-04-18 05:29 44.39243 51.37378 12145 ft 168 kts 220°
2026-04-18 05:29 44.38383 51.36305 12008 ft 165 kts 220°
2026-04-18 05:30 44.37523 51.35236 11802 ft 165 kts 220°
2026-04-18 05:30 44.36657 51.34165 11568 ft 168 kts 220°
2026-04-18 05:30 44.35782 51.33081 11318 ft 168 kts 220°
2026-04-18 05:30 44.34903 51.31993 11070 ft 169 kts 220°
2026-04-18 05:31 44.34023 51.30905 10823 ft 169 kts 219°
2026-04-18 05:31 44.33142 51.29816 10577 ft 169 kts 219°
2026-04-18 05:31 44.32264 51.28729 10334 ft 168 kts 219°
2026-04-18 05:31 44.31399 51.27659 10091 ft 168 kts 219°
2026-04-18 05:32 44.30526 51.26581 9836 ft 167 kts 219°
2026-04-18 05:32 44.29658 51.25506 9564 ft 166 kts 219°
2026-04-18 05:32 44.28797 51.24443 9299 ft 165 kts 218°
2026-04-18 05:32 44.27941 51.23385 9035 ft 163 kts 219°
2026-04-18 05:33 44.27094 51.22338 8777 ft 162 kts 218°
2026-04-18 05:33 44.26249 51.21296 8516 ft 161 kts 218°
2026-04-18 05:33 44.25405 51.20257 8261 ft 162 kts 218°
2026-04-18 05:33 44.24559 51.19215 8005 ft 162 kts 218°
2026-04-18 05:34 44.23714 51.18173 7754 ft 162 kts 218°
2026-04-18 05:34 44.22872 51.17135 7501 ft 161 kts 218°
2026-04-18 05:34 44.22037 51.16106 7245 ft 160 kts 218°
2026-04-18 05:34 44.21207 51.15085 7007 ft 159 kts 218°
2026-04-18 05:35 44.20381 51.14069 6762 ft 158 kts 218°
2026-04-18 05:35 44.19560 51.13057 6516 ft 157 kts 218°
2026-04-18 05:35 44.18747 51.12058 6252 ft 155 kts 218°
2026-04-18 05:35 44.17942 51.11069 5993 ft 154 kts 218°
2026-04-18 05:36 44.17143 51.10087 5786 ft 150 kts 218°
2026-04-18 05:36 44.16375 51.09142 5639 ft 145 kts 218°
2026-04-18 05:36 44.15625 51.08222 5489 ft 143 kts 218°
2026-04-18 05:36 44.14872 51.07302 5335 ft 144 kts 218°
2026-04-18 05:37 44.14116 51.06374 5180 ft 145 kts 218°
2026-04-18 05:37 44.13357 51.05445 5026 ft 146 kts 218°
2026-04-18 05:37 44.12598 51.04512 4867 ft 145 kts 218°
2026-04-18 05:37 44.11850 51.03596 4710 ft 145 kts 218°
2026-04-18 05:38 44.11094 51.02669 4569 ft 145 kts 218°
2026-04-18 05:38 44.10336 51.01740 4410 ft 144 kts 218°
2026-04-18 05:38 44.09591 51.00826 4264 ft 142 kts 218°
2026-04-18 05:38 44.08843 50.99912 4107 ft 143 kts 218°
2026-04-18 05:39 44.08095 50.98997 3953 ft 142 kts 218°
2026-04-18 05:39 44.07351 50.98087 3805 ft 143 kts 217°
2026-04-18 05:39 44.06602 50.97173 3655 ft 143 kts 218°
2026-04-18 05:39 44.05850 50.96253 3500 ft 144 kts 218°
2026-04-18 05:40 44.05096 50.95330 3345 ft 144 kts 217°
2026-04-18 05:40 44.04341 50.94409 3191 ft 145 kts 217°
2026-04-18 05:40 44.03580 50.93521 3039 ft 144 kts 211°
2026-04-18 05:40 44.02745 50.92750 2887 ft 144 kts 209°
2026-04-18 05:41 44.01891 50.91987 2735 ft 148 kts 209°
2026-04-18 05:41 44.01005 50.91190 2538 ft 155 kts 209°
2026-04-18 05:41 44.00126 50.90396 2395 ft 146 kts 209°
2026-04-18 05:41 43.99287 50.89639 2254 ft 141 kts 209°
2026-04-18 05:42 43.98460 50.88919 2106 ft 139 kts 207°
2026-04-18 05:42 43.97636 50.88236 1957 ft 136 kts 201°
2026-04-18 05:42 43.96731 50.87992 1822 ft 133 kts 176°
2026-04-18 05:42 43.95881 50.88401 1784 ft 128 kts 142°
2026-04-18 05:43 43.95271 50.89248 1788 ft 125 kts 128°
2026-04-18 05:43 43.94762 50.90228 1794 ft 126 kts 125°
2026-04-18 05:43 43.94265 50.91249 1796 ft 129 kts 125°
2026-04-18 05:43 43.93771 50.92284 1797 ft 128 kts 125°
2026-04-18 05:44 43.93286 50.93330 1799 ft 129 kts 124°
2026-04-18 05:44 43.92800 50.94384 1794 ft 130 kts 124°
2026-04-18 05:44 43.92479 50.95080 1794 ft 129 kts 124°
2026-04-18 05:44 43.91997 50.96122 1790 ft 125 kts 124°
2026-04-18 05:45 43.91556 50.97079 1795 ft 109 kts 124°
2026-04-18 05:45 43.91164 50.97928 1697 ft 102 kts 125°
2026-04-18 05:45 43.90804 50.98710 1564 ft 94 kts 124°
2026-04-18 05:45 43.90458 50.99463 1441 ft 92 kts 124°
2026-04-18 05:46 43.90115 51.00202 1325 ft 91 kts 125°
2026-04-18 05:46 43.89775 51.00925 1329 ft 89 kts 124°
2026-04-18 05:46 43.89448 51.01646 1192 ft 88 kts 123°
2026-04-18 05:46 43.89118 51.02364 1029 ft 87 kts 123°
2026-04-18 05:47 43.88807 51.03068 848 ft 85 kts 122°
2026-04-18 05:47 43.88479 51.03754 685 ft 86 kts 122°
2026-04-18 05:47 43.88157 51.04474 631 ft 88 kts 123°
2026-04-18 05:47 43.87829 51.05176 515 ft 86 kts 124°
2026-04-18 05:48 43.87491 51.05871 412 ft 87 kts 120°
2026-04-18 05:48 43.87170 51.06577 272 ft 86 kts 122°
2026-04-18 05:48 43.86855 51.07267 150 ft 83 kts 122°
2026-04-18 05:48 43.86550 51.07922 66 ft 76 kts 123°
2026-04-18 05:49 43.86314 51.08422 64 ft 45 kts 123°
2026-04-18 05:49 43.86186 51.08704 69 ft 27 kts 122°
2026-04-18 05:49 43.86096 51.08895 68 ft 19 kts 124°
2026-04-18 05:49 43.86015 51.09074 67 ft 26 kts 123°
2026-04-18 05:50 43.85914 51.09291 68 ft 24 kts 124°
2026-04-18 05:50 43.85854 51.09419 66 ft 6 kts 122°
2026-04-18 05:50 43.85806 51.09435 65 ft 10 kts 207°
2026-04-18 05:50 43.85731 51.09371 68 ft 7 kts 214°
2026-04-18 05:51 43.85728 51.09369 68 ft 0 kts 212°
2026-04-18 05:51 43.85720 51.09361 68 ft 8 kts 213°
2026-04-18 05:51 43.85671 51.09318 68 ft 9 kts 209°
2026-04-18 05:51 43.85618 51.09271 68 ft 10 kts 212°
2026-04-18 05:52 43.85564 51.09270 68 ft 8 kts 135°
2026-04-18 05:52 43.85542 51.09318 65 ft 7 kts 124°
2026-04-18 05:52 43.85510 51.09374 68 ft 5 kts 169°
2026-04-18 05:52 43.85475 51.09349 68 ft 0 kts 217°
2026-04-18 05:54 43.85470 51.09361 65 ft 5 kts 33°
2026-04-18 05:54 43.85512 51.09375 68 ft 5 kts 342°
2026-04-18 05:54 43.85542 51.09318 66 ft 10 kts 302°
2026-04-18 05:55 43.85559 51.09334 68 ft 4 kts 58°
2026-04-18 05:55 43.85585 51.09368 68 ft 8 kts 60°
2026-04-18 05:55 43.85544 51.09402 68 ft 11 kts 130°
2026-04-18 05:55 43.85531 51.09432 64 ft 2 kts 322°
2026-04-18 05:56 43.85535 51.09426 67 ft 0 kts 303°